Back to catalog

KUIPER-00038

AliveCommunicationsLEO
NORAD 63750·PAYLOAD·🇺🇸 United States

Launched Apr 28, 2025 from Cape Canaveral Space Force Station

Loading…

Next Passes (next 24 hours)

TLE

FreshSource: CelesTrak SupGP

Epoch: Sep 14, 2026, 17:13 UTC

1 63750C 25088AC  26257.71777778  .00007219  00000+0  94512-3 0  2576
2 63750  51.9022 342.2408 0000592  98.1814 136.7273 14.79916042    15

Track KUIPER-00038 in real time with AllMySat

Download on the App Store